AAL1724 KDFW-KBUF

Flight info

Callsign AAL1724
Flight time N/A
Altitude 38000
Route AKUNA9 MLC ZALDA MYERZ EMBRR PLASH DUTSH DKK
Aircraft B738/M-SDE2E3FGHIRWXY/LB1

Departure

Time 2026-04-30 17:59
Airport Dallas Fort Worth International Airport (KDFW)

Arrival

Time N/A
Airport Buffalo Niagara International Airport (KBUF)
Time Latitude Longitude Altitude Speed Heading
2026-04-30 17:39 32.90274 -97.04498 603 ft 0 kts 50°
2026-04-30 17:42 32.90272 -97.04501 603 ft 2 kts 50°
2026-04-30 17:43 32.90253 -97.04527 603 ft 2 kts 50°
2026-04-30 17:44 32.90255 -97.04572 604 ft 1 kts 140°
2026-04-30 17:44 32.90260 -97.04577 604 ft 0 kts 139°
2026-04-30 17:49 32.90113 -97.04496 603 ft 7 kts 206°
2026-04-30 17:50 32.90081 -97.04692 606 ft 16 kts 270°
2026-04-30 17:51 32.89934 -97.04765 607 ft 21 kts 180°
2026-04-30 17:52 32.89481 -97.04769 599 ft 24 kts 180°
2026-04-30 17:53 32.88609 -97.04770 580 ft 21 kts 184°
2026-04-30 17:54 32.88152 -97.04810 573 ft 18 kts 180°
2026-04-30 17:55 32.87909 -97.04980 570 ft 8 kts 279°
2026-04-30 17:56 32.87975 -97.05094 571 ft 2 kts 359°
2026-04-30 17:57 32.88015 -97.05095 571 ft 2 kts 360°
2026-04-30 17:58 32.89848 -97.05076 765 ft 186 kts
2026-04-30 17:59 32.95738 -97.05192 4117 ft 247 kts
2026-04-30 18:00 33.02563 -97.05289 5002 ft 262 kts
2026-04-30 18:00 33.07638 -97.05428 5005 ft 263 kts 356°
2026-04-30 18:01 33.11256 -97.05933 6157 ft 285 kts 352°
2026-04-30 18:02 33.17005 -97.05573 7011 ft 289 kts 30°
2026-04-30 18:02 33.21610 -97.01643 7008 ft 288 kts 36°
2026-04-30 18:03 33.26581 -96.97505 9144 ft 304 kts 32°
2026-04-30 18:04 33.32015 -96.93069 11377 ft 337 kts 31°
2026-04-30 18:05 33.40027 -96.86493 14068 ft 379 kts 30°
2026-04-30 18:06 33.48842 -96.79733 16922 ft 402 kts 22°
2026-04-30 18:07 33.58939 -96.73457 19557 ft 427 kts 20°
2026-04-30 18:08 33.66925 -96.68381 21339 ft 445 kts 21°
2026-04-30 18:09 33.78091 -96.61195 23389 ft 470 kts 21°
2026-04-30 18:10 33.89693 -96.53689 25840 ft 480 kts 19°
2026-04-30 18:11 34.01678 -96.45930 27825 ft 497 kts 18°
2026-04-30 18:11 34.10755 -96.39681 29433 ft 511 kts 22°
2026-04-30 18:12 34.19398 -96.32539 31779 ft 499 kts 24°
2026-04-30 18:13 34.25089 -96.27752 32592 ft 503 kts 23°
2026-04-30 18:13 34.32624 -96.21519 33538 ft 511 kts 22°
2026-04-30 18:14 34.39400 -96.15915 35283 ft 500 kts 22°
2026-04-30 18:15 34.47823 -96.08952 37070 ft 491 kts 21°
2026-04-30 18:15 34.56404 -96.01935 37667 ft 505 kts 21°
2026-04-30 18:16 34.62044 -95.97301 38049 ft 509 kts 21°
2026-04-30 18:16 34.67560 -95.92719 38057 ft 501 kts 22°
2026-04-30 18:17 34.73134 -95.88082 38064 ft 498 kts 21°
2026-04-30 18:18 34.81418 -95.81040 38071 ft 510 kts 26°
2026-04-30 18:18 34.86502 -95.75085 38074 ft 523 kts 37°
2026-04-30 18:19 34.91006 -95.68228 38079 ft 532 kts 43°
2026-04-30 18:19 34.95293 -95.60967 38075 ft 535 kts 44°
2026-04-30 18:20 34.99564 -95.53564 38073 ft 534 kts 45°
2026-04-30 18:20 35.03808 -95.46220 38066 ft 537 kts 45°
2026-04-30 18:21 35.08123 -95.38776 38056 ft 533 kts 45°
2026-04-30 18:21 35.12375 -95.31447 38065 ft 532 kts 44°
2026-04-30 18:22 35.16664 -95.24090 38066 ft 537 kts 45°
2026-04-30 18:22 35.23163 -95.12905 38071 ft 539 kts 45°
2026-04-30 18:23 35.27462 -95.05452 38069 ft 534 kts 45°
2026-04-30 18:23 35.31697 -94.98088 38073 ft 536 kts 44°
2026-04-30 18:24 35.38119 -94.86898 38079 ft 537 kts 44°
2026-04-30 18:25 35.42383 -94.79451 38082 ft 535 kts 44°
2026-04-30 18:25 35.48548 -94.68687 38081 ft 535 kts 45°
2026-04-30 18:26 35.54688 -94.57967 38079 ft 537 kts 45°
2026-04-30 18:27 35.60718 -94.47369 38077 ft 536 kts 45°
2026-04-30 18:28 35.66765 -94.36690 38078 ft 534 kts 45°
2026-04-30 18:28 35.72797 -94.26033 38082 ft 535 kts 46°
2026-04-30 18:29 35.80997 -94.11475 38093 ft 535 kts 46°
2026-04-30 18:30 35.89133 -93.96945 38096 ft 535 kts 45°
2026-04-30 18:31 35.95344 -93.85827 38095 ft 534 kts 45°
2026-04-30 18:32 36.01486 -93.74827 38087 ft 537 kts 45°
2026-04-30 18:33 36.07248 -93.64437 38082 ft 541 kts 46°
2026-04-30 18:33 36.12171 -93.53491 38080 ft 549 kts 55°
2026-04-30 18:34 36.16676 -93.41683 38080 ft 551 kts 56°
2026-04-30 18:35 36.19573 -93.34017 38085 ft 549 kts 56°
2026-04-30 18:35 36.22781 -93.25674 38103 ft 557 kts 56°
2026-04-30 18:36 36.27605 -93.13284 38107 ft 558 kts 56°
2026-04-30 18:37 36.32436 -93.00857 38106 ft 562 kts 55°
2026-04-30 18:37 36.35766 -92.92224 38095 ft 561 kts 56°
2026-04-30 18:38 36.39060 -92.83652 38089 ft 557 kts 57°
2026-04-30 18:38 36.42329 -92.75102 38090 ft 559 kts 56°
2026-04-30 18:39 36.45636 -92.66459 38094 ft 561 kts 56°
2026-04-30 18:39 36.48856 -92.58042 38102 ft 562 kts 55°
2026-04-30 18:40 36.52121 -92.49468 38104 ft 559 kts 55°
2026-04-30 18:40 36.55407 -92.40849 38098 ft 563 kts 56°
2026-04-30 18:41 36.58686 -92.32162 38092 ft 559 kts 57°
2026-04-30 18:41 36.61959 -92.23496 38090 ft 561 kts 57°
2026-04-30 18:42 36.65288 -92.14720 38090 ft 563 kts 56°
2026-04-30 18:42 36.70236 -92.01610 38090 ft 563 kts 56°
2026-04-30 18:45 36.88336 -91.52956 38085 ft 564 kts 57°
2026-04-30 18:46 36.91603 -91.44109 38083 ft 562 kts 56°
2026-04-30 18:46 36.94868 -91.35229 38084 ft 564 kts 56°
2026-04-30 18:47 36.98127 -91.26336 38085 ft 566 kts 57°
2026-04-30 18:47 37.01413 -91.17370 38080 ft 565 kts 58°
2026-04-30 18:48 37.04646 -91.08501 38083 ft 566 kts 57°
2026-04-30 18:48 37.07792 -90.99843 38086 ft 566 kts 58°
2026-04-30 18:49 37.10993 -90.91039 38083 ft 565 kts 57°
2026-04-30 18:49 37.14177 -90.82207 38087 ft 565 kts 57°
2026-04-30 18:50 37.17353 -90.73400 38088 ft 562 kts 57°
2026-04-30 18:50 37.20605 -90.64593 38084 ft 561 kts 54°
2026-04-30 18:51 37.24220 -90.56072 38088 ft 552 kts 51°
2026-04-30 18:51 37.28020 -90.47752 38084 ft 552 kts 50°
2026-04-30 18:52 37.31840 -90.39439 38093 ft 554 kts 51°
2026-04-30 18:52 37.35503 -90.31293 38084 ft 551 kts 52°
2026-04-30 18:53 37.39258 -90.22802 38090 ft 556 kts 52°
2026-04-30 18:53 37.42940 -90.14397 38084 ft 551 kts 52°
2026-04-30 18:54 37.46629 -90.05988 38089 ft 551 kts 52°
2026-04-30 18:54 37.50278 -89.97669 38087 ft 552 kts 52°
2026-04-30 18:55 37.53914 -89.89374 38097 ft 551 kts 52°
2026-04-30 18:55 37.59408 -89.76787 38098 ft 550 kts 52°
2026-04-30 18:56 37.64860 -89.64185 38087 ft 553 kts 52°
2026-04-30 18:57 37.70298 -89.51620 38084 ft 550 kts 52°
2026-04-30 18:57 37.73923 -89.43230 38097 ft 549 kts 52°
2026-04-30 18:58 37.79387 -89.30513 38097 ft 552 kts 53°
2026-04-30 18:59 37.84842 -89.17768 38103 ft 553 kts 53°
2026-04-30 19:00 37.92088 -89.00752 38109 ft 551 kts 52°
2026-04-30 19:01 37.99320 -88.83697 38096 ft 550 kts 52°
2026-04-30 19:02 38.04708 -88.70925 38085 ft 550 kts 53°
2026-04-30 19:03 38.11879 -88.53857 38090 ft 551 kts 53°